Tracking 29059 objects as of 17-Jun-2024
HD Live streaming from Space Station
objects crossing your sky now

STARLINK-4022

Track STARLINK-4022 now!
10-day predictions
STARLINK-4022 is classified as:


NORAD ID: 52629
Int'l Code: 2022-052AH
Perigee: 546.1 km
Apogee: 547.7 km
Inclination: 53.2 °
Period: 95.4 minutes
Semi major axis: 6917 km
RCS: Unknown
Launch date: May 14, 2022
Source: United States (US)
Launch site: AIR FORCE EASTERN TEST RANGE (AFETR)
Your satellite tracking list
Your tracking list is empty




NASA's NSSDC Master Catalog

Two Line Element Set (TLE):
1 52629U 22052AH  24168.44036183  .00000878  00000-0  73238-4 0  9995
2 52629  53.2147 222.8720 0001139  95.9038 264.2084 15.08837397115698
Source of the keplerian elements: AFSPC